Weather History for KSUE - February, 2012

Change the Weather History Date:

Saturday, February 25, 2012

  Actual Average Record
Temperature  
Mean Temperature 26 °F -  
Max Temperature 30 °F 30 °F 48 °F (1911)
Min Temperature 21 °F 13 °F -24 °F (1928)
Degree Days  
Heating Degree Days 40    
Moisture  
Dew Point 16 °F    
Average Humidity 66    
Maximum Humidity 86    
Minimum Humidity 47    
Precipitation  
Precipitation 0.00 in - - ()
Sea Level Pressure  
Sea Level Pressure 30.09 in    
Wind  
Wind Speed 10 mph (WNW)    
Max Wind Speed 16 mph    
Max Gust Speed 20 mph    
Visibility 10 miles    
Events      
Averages and records for this station are not official NWS values.
T = Trace of Precipitation, MM = Missing Value Source: NWS Daily Summary

Daily Weather History Graph

Daily Weather History Graph

Search for Another Location

Airport or City:

Trip Planner

Search our weather history database for the weather conditions in past years. The results will help you decide how hot, cold, wet, or windy it might be!

Date:

Astronomy

Feb. 25, 2012 Rise Set
Actual Time 6:35 AM CST 5:31 PM CST
Civil Twilight 6:05 AM CST 6:00 PM CST
Nautical Twilight 5:31 AM CST 6:34 PM CST
Astronomical Twilight 4:57 AM CST 7:08 PM CST
Moon 7:46 AM CST (2/25) 9:45 PM CST (2/25)
Length of Visible Light 11h 55m
Length of Day
10h 56m
Waxing Crescent, 14% of the Moon is Illuminated
Feb 25
Waxing Crescent
Feb 29
First Quarter
Mar 8
Full
Mar 14
Last Quarter
Mar 22
New

Hourly Weather History & Observations

Time (CST) Temp. Windchill Dew Point Humidity Pressure Visibility Wind Dir Wind Speed Gust Speed Precip Events Conditions
12:35 AM 26.6 °F 16.2 °F 17.6 °F 69% 29.82 in 10.0 mi WNW 11.5 mph - N/A   Overcast
12:55 AM 26.6 °F 16.8 °F 17.6 °F 69% 29.83 in 10.0 mi NW 10.4 mph 18.4 mph N/A   Overcast
1:15 AM 26.6 °F 15.7 °F 19.4 °F 74% 29.84 in 10.0 mi WNW 12.7 mph 17.3 mph N/A   Mostly Cloudy
1:35 AM 24.8 °F 12.9 °F 15.8 °F 69% 29.84 in 10.0 mi WNW 13.8 mph - N/A   Mostly Cloudy
1:55 AM 24.8 °F 12.4 °F 15.8 °F 69% 29.85 in 10.0 mi WNW 15.0 mph - N/A   Overcast
3:15 AM 23.0 °F 10.6 °F 15.8 °F 74% 29.88 in 10.0 mi WNW 13.8 mph - N/A   Overcast
3:35 AM 23.0 °F 11.1 °F 15.8 °F 74% 29.89 in 10.0 mi WNW 12.7 mph - N/A   Overcast
3:55 AM 23.0 °F 12.4 °F 15.8 °F 74% 29.89 in 10.0 mi West 10.4 mph 17.3 mph N/A   Overcast
4:15 AM 21.2 °F 8.9 °F 15.8 °F 80% 29.91 in 8.0 mi West 12.7 mph 16.1 mph N/A   Overcast
4:35 AM 21.2 °F 8.9 °F 15.8 °F 80% 29.92 in 10.0 mi West 12.7 mph - N/A   Overcast
4:55 AM 21.2 °F 9.5 °F 17.6 °F 86% 29.93 in 5.0 mi West 11.5 mph 17.3 mph N/A   Overcast
5:15 AM 21.2 °F 9.5 °F 15.8 °F 80% 29.94 in 10.0 mi West 11.5 mph - N/A   Overcast
6:15 AM 21.2 °F 10.1 °F 15.8 °F 80% 29.96 in 10.0 mi WNW 10.4 mph - N/A   Overcast
6:35 AM 21.2 °F 9.5 °F 15.8 °F 80% 29.97 in 10.0 mi WNW 11.5 mph - N/A   Overcast
6:55 AM 21.2 °F 9.5 °F 15.8 °F 80% 29.98 in 10.0 mi WNW 11.5 mph - N/A   Overcast
7:15 AM 21.2 °F 9.5 °F 15.8 °F 80% 29.99 in 10.0 mi WNW 11.5 mph - N/A   Overcast
7:35 AM 23.0 °F 11.7 °F 15.8 °F 74% 30.00 in 10.0 mi WNW 11.5 mph - N/A   Overcast
7:55 AM 23.0 °F 12.4 °F 17.6 °F 80% 30.01 in 10.0 mi WNW 10.4 mph - N/A   Overcast
8:15 AM 24.8 °F 12.4 °F 15.8 °F 69% 30.03 in 10.0 mi WNW 15.0 mph - N/A   Overcast
8:35 AM 23.0 °F 10.6 °F 15.8 °F 74% 30.03 in 10.0 mi WNW 13.8 mph - N/A   Overcast
8:55 AM 24.8 °F 11.9 °F 15.8 °F 69% 30.05 in 10.0 mi WNW 16.1 mph 19.6 mph N/A   Overcast
9:15 AM 24.8 °F 14.6 °F 15.8 °F 69% 30.06 in 10.0 mi WNW 10.4 mph - N/A   Overcast
9:55 AM 26.6 °F 16.2 °F 15.8 °F 64% 30.07 in 10.0 mi WNW 11.5 mph 16.1 mph N/A   Overcast
10:35 AM 26.6 °F 16.2 °F 14.0 °F 59% 30.09 in 10.0 mi NW 11.5 mph - N/A   Mostly Cloudy
10:55 AM 26.6 °F 15.2 °F 14.0 °F 59% 30.10 in 10.0 mi NW 13.8 mph 18.4 mph N/A   Overcast
11:15 AM 28.4 °F 18.5 °F 14.0 °F 55% 30.11 in 10.0 mi NW 11.5 mph - N/A   Overcast
11:35 AM 28.4 °F 19.7 °F 15.8 °F 59% 30.11 in 10.0 mi NNW 9.2 mph - N/A   Overcast
11:55 AM 28.4 °F 19.1 °F 12.2 °F 51% 30.12 in 10.0 mi WNW 10.4 mph - N/A   Scattered Clouds
12:35 PM 28.4 °F 18.5 °F 15.8 °F 59% 30.12 in 10.0 mi West 11.5 mph - N/A   Overcast
12:55 PM 30.2 °F 20.2 °F 15.8 °F 55% 30.13 in 10.0 mi West 12.7 mph - N/A   Overcast
1:15 PM 30.2 °F 20.2 °F 15.8 °F 55% 30.13 in 10.0 mi West 12.7 mph 17.3 mph N/A   Overcast
1:35 PM 28.4 °F 18.5 °F 14.0 °F 55% 30.14 in 10.0 mi WNW 11.5 mph - N/A   Overcast
1:55 PM 28.4 °F 19.1 °F 14.0 °F 55% 30.14 in 10.0 mi West 10.4 mph - N/A   Overcast
2:15 PM 28.4 °F 19.1 °F 14.0 °F 55% 30.14 in 10.0 mi West 10.4 mph - N/A   Overcast
2:35 PM 28.4 °F 19.7 °F 12.2 °F 51% 30.15 in 10.0 mi West 9.2 mph - N/A   Overcast
2:55 PM 30.2 °F 20.8 °F 14.0 °F 51% 30.15 in 10.0 mi West 11.5 mph 17.3 mph N/A   Overcast
3:15 PM 30.2 °F 21.3 °F 14.0 °F 51% 30.15 in 10.0 mi West 10.4 mph - N/A   Overcast
3:35 PM 30.2 °F 20.2 °F 12.2 °F 47% 30.16 in 10.0 mi West 12.7 mph - N/A   Overcast
4:35 PM 30.2 °F 23.4 °F 12.2 °F 47% 30.16 in 10.0 mi NW 6.9 mph - N/A   Mostly Cloudy
4:55 PM 28.4 °F 23.3 °F 12.2 °F 51% 30.17 in 10.0 mi NW 4.6 mph - N/A   Mostly Cloudy
5:15 PM 28.4 °F 23.3 °F 12.2 °F 51% 30.17 in 10.0 mi NW 4.6 mph - N/A   Overcast
5:35 PM 28.4 °F - 14.0 °F 55% 30.19 in 10.0 mi Calm Calm - N/A   Overcast
5:55 PM 28.4 °F - 15.8 °F 59% 30.20 in 10.0 mi Calm Calm - N/A   Overcast
6:15 PM 28.4 °F - 14.0 °F 55% 30.20 in 10.0 mi Calm Calm - N/A   Overcast
6:35 PM 26.6 °F 22.6 °F 17.6 °F 69% 30.20 in 10.0 mi SSW 3.5 mph - N/A   Mostly Cloudy
6:55 PM 26.6 °F - 17.6 °F 69% 30.21 in 10.0 mi Calm Calm - N/A   Clear
7:15 PM 26.6 °F 22.6 °F 17.6 °F 69% 30.21 in 10.0 mi SSW 3.5 mph - N/A   Clear
7:35 PM - - - N/A% - - North - - N/A   Unknown
7:55 PM 24.8 °F 20.5 °F 17.6 °F 74% 30.23 in 10.0 mi SSW 3.5 mph - N/A   Unknown
8:15 PM 24.8 °F - 17.6 °F 74% 30.24 in 10.0 mi Calm Calm - N/A   Overcast
8:35 PM 24.8 °F 20.5 °F 17.6 °F 74% 30.24 in 10.0 mi South 3.5 mph - N/A   Overcast
8:55 PM 26.6 °F - 17.6 °F 69% 30.24 in 10.0 mi Calm Calm - N/A   Overcast
9:15 PM 26.6 °F - 17.6 °F 69% 30.24 in 10.0 mi Calm Calm - N/A   Overcast
9:35 PM 26.6 °F - 17.6 °F 69% 30.24 in 10.0 mi Calm Calm - N/A   Overcast
9:55 PM 26.6 °F - 15.8 °F 64% 30.25 in 10.0 mi Calm Calm - N/A   Overcast
10:15 PM 26.6 °F - 15.8 °F 64% 30.24 in 10.0 mi Calm Calm - N/A   Overcast
10:35 PM 26.6 °F - 15.8 °F 64% 30.25 in 10.0 mi Calm Calm - N/A   Overcast
10:55 PM 24.8 °F 20.5 °F 17.6 °F 74% 30.25 in 10.0 mi South 3.5 mph - N/A   Mostly Cloudy
11:15 PM 26.6 °F 22.6 °F 15.8 °F 64% 30.26 in 10.0 mi South 3.5 mph - N/A   Clear
11:35 PM 24.8 °F - 17.6 °F 74% 30.26 in 10.0 mi Calm Calm - N/A   Clear
11:55 PM 24.8 °F 20.5 °F 17.6 °F 74% 30.27 in 10.0 mi SSW 3.5 mph - N/A   Clear